This demonstration page uses our WeatherBlox Daily Observations layout. Learn more.

39.92423, -83.80882

Hourly Observations for December 15, 2018

Temp ( °F °C ) Dew Point ( °F °C ) Humidity (%) Winds ( mph kmh ) Pressure ( in mb ) Visibility ( mi km ) Precip ( " mm )
12:56 am 00:56 Cloudy with Light Rain 44 6.7 42 5.6 93 93 E 12 19 30.04 1017 10 16.0934 0 0.0254
1:56 am 01:56 Cloudy with Light Rain 46 7.8 45 7.2 96 96 NNE 8 13 30.09 1019 10 16.0934 0.01 0.254
2:56 am 02:56 Cloudy with Rain 44 6.7 43 6.1 96 96 ENE 14 22 30.05 1018 8 12.87472 0.08 2.032
3:56 am 03:56 Cloudy with Light Rain 43 6.1 42 5.6 97 97 NE 12 19 30.04 1017 9 14.48406 0.01 0.254
4:56 am 04:56 Cloudy with Light Rain 44 6.7 43 6.1 96 96 NE 15 24 29.99 1016 8 12.87472 0.04 1.016
5:56 am 05:56 Cloudy 45 7.2 44 6.7 97 97 NE 17 28 29.97 1015 8 12.87472 0.01 0.254
6:51 am 06:51 Cloudy 45 7 43 6 93 93 NE 21 33 29.97 1015 7 11.26538 0 0
6:56 am 06:56 Cloudy 45 7.2 43 6.1 93 93 NE 21 33 29.95 1014 8 12.87472 0 0
7:56 am 07:56 Mostly Cloudy with Light Rain 46 7.8 43 6.1 89 89 NE 23 37 29.91 1013 10 16.0934 0 0.0254
8:39 am 08:39 Cloudy with Light Rain 46 8 43 6 87 87 NNE 12 19 30 1016 10 16.0934 0 0.0254
8:56 am 08:56 Cloudy with Light Rain 45 7.2 42 5.6 90 90 NE 14 22 30 1016 10 16.0934 0 0.0254
9:56 am 09:56 Cloudy with Light Rain 44 6.7 42 5.6 93 93 NE 18 30 30 1016 6 9.65604 0.02 0.508
10:56 am 10:56 Cloudy with Light Rain 44 6.7 42 5.6 93 93 NE 14 22 30 1016 6 9.65604 0.03 0.762
11:51 am 11:51 Cloudy with Light Rain 43 6 43 6 100 100 NE 15 24 30 1016 5 8.0467 0.05 1.27
11:56 am 11:56 Cloudy with Light Rain 43 6.1 42 5.6 97 97 NE 16 26 29.98 1015 5 8.0467 0.05 1.27
12:56 pm 12:56 Cloudy with Rain 44 6.7 44 6.7 100 100 NE 18 30 29.97 1015 4 6.43736 0.12 3.048
1:24 pm 13:24 Cloudy with Rain 45 7 45 7 100 100 NNE 17 28 29.97 1015 4 6.43736 0.08 2.032
1:33 pm 13:33 Cloudy with Rain 45 7 45 7 100 100 NNE 16 26 29.94 1014 4 6.43736 0.11 2.794
1:56 pm 13:56 Cloudy with Rain 45 7.2 44 6.7 97 97 NE 20 31 29.93 1014 4 6.43736 0.18 4.572
2:56 pm 14:56 Cloudy with Rain 46 7.8 46 7.8 100 100 NNE 24 39 29.89 1012 4 6.43736 0.2 5.08
3:56 pm 15:56 Cloudy with Rain 47 8.3 47 8.3 100 100 NNE 23 37 29.88 1012 4 6.43736 0.12 3.048
4:13 pm 16:13 Cloudy with Rain 46 8 46 8 100 100 NE 22 35 29.88 1012 4 6.43736 0.03 0.762
4:23 pm 16:23 Cloudy with Rain 46 8 46 8 100 100 NE 21 33 29.88 1012 6 9.65604 0.05 1.27
4:56 pm 16:56 Cloudy with Light Rain 47 8.3 47 8.3 100 100 ENE 20 31 29.89 1012 6 9.65604 0.08 2.032
5:56 pm 17:56 Cloudy 47 8.3 47 8.3 100 100 NE 20 31 29.88 1012 8 12.87472 0.04 1.016
6:30 pm 18:30 Cloudy with Light Rain 46 8 46 8 100 100 NE 16 26 29.91 1013 5 8.0467 0 0.0254
6:56 pm 18:56 Cloudy with Light Rain 46 7.8 46 7.8 100 100 NE 15 24 29.89 1012 5 8.0467 0 0.0254
7:37 pm 19:37 Cloudy with Light Rain 45 7 45 7 100 100 NE 13 20 29.91 1013 2.5 4.02335 0 0.0254
7:44 pm 19:44 Cloudy with Light Rain 45 7 45 7 100 100 NE 13 20 29.91 1013 3 4.82802 0 0.0254
7:54 pm 19:54 Cloudy with Light Rain 45 7 45 7 100 100 NE 12 19 29.94 1014 2 3.21868 0 0.0254
7:56 pm 19:56 Cloudy with Light Rain 45 7.2 45 7.2 100 100 NE 12 19 29.91 1013 2 3.21868 0 0.0254
8:51 pm 20:51 Cloudy with Light Rain 45 7 45 7 100 100 NE 13 20 29.94 1014 1.75 2.816345 0.02 0.508
8:56 pm 20:56 Cloudy with Light Rain 44 6.7 44 6.7 100 100 NNE 9 15 29.93 1013 2 3.21868 0.02 0.508
9:33 pm 21:33 Cloudy with Light Rain 43 6 43 6 100 100 NNE 13 20 29.94 1014 3 4.82802 0 0.0254
9:56 pm 21:56 Cloudy with Light Rain 43 6.1 43 6.1 100 100 NNE 9 15 29.94 1014 3 4.82802 0 0.0254
10:56 pm 22:56 Cloudy with Light Rain 41 5 41 5 100 100 NNE 13 20 29.94 1014 4 6.43736 0.01 0.254
11:56 pm 23:56 Cloudy with Mist and Fog 40 4.4 40 4.4 100 100 NNE 16 26 29.94 1014 3 4.82802 0 0.0254

Powered by AerisWeather